Flag for Austria Weather past 2 weeks in Linz, Upper Austria, Austria

Now
61 °F

Partly cloudy.


Feels Like: 61 °F
Forecast: 54 / 74 °F
Wind: 5 mph from Northwest

Location: Linz / Hoersching-Flughafen

Current Time: Sep 2, 2015 at 9:45:03 PM

Latest Report: Sep 2, 2015 at 8:50 PM


Visibility: 5 mi

Pressure: 30.04 "Hg

Humidity: 94%

Dew point: 59 °F

Location of LinzLocation

Historic Weather in Linz — Graph

°F

Linz temperature yesterday

Maximum temperature yesterday: 95 °F (at 3:50 PM)
Minimum temperature yesterday: 63 °F (at 6:50 AM)
Average temperature yesterday: 79 °F

Past Weeks' High & Low Weather Summary

 TemperatureHumidityPressure
High97 °F (Aug 31, 4:50 PM)100% (Aug 20, 9:20 PM)30.27 "Hg (Aug 20, 9:20 PM)
Low45 °F (Aug 26, 6:20 AM)16% (Aug 26, 4:20 PM)29.71 "Hg (Aug 24, 5:50 PM)
Average70 °F62%30.03 "Hg
* Reported Aug 18 7:20 PM — Sep 2 7:50 PM, Linz, Weather by CustomWeather, © 2015

Note: Actual official high and low records may vary slightly from our data, if they occured in-between our weather recording intervals... More about our weather records

Advertising

Linz weather history for previous 24 hours

 ConditionsComfort  
Time TempWeatherWind HumidityBarometerVisibility
7:50 PM
Wed, Sep 2
61 °FLight rain. Broken clouds.3 mph94%30.01 "Hg5 mi
7:20 PM61 °FLight rain. Broken clouds.3 mph94%30.01 "Hg5 mi
6:50 PM61 °FRain showers. Broken clouds.3 mph94%30.01 "Hg3 mi
6:20 PM61 °FRain showers. Broken clouds.7 mph88%30.01 "Hg4 mi
5:50 PM63 °FRain showers. Broken clouds.8 mph88%30.01 "Hg6 mi
5:20 PM66 °FSprinkles. Broken clouds.3 mph78%29.98 "HgN/A
4:50 PM66 °FPartly sunny.5 mph78%29.98 "HgN/A
4:20 PM66 °FSprinkles. Broken clouds.1 mph73%29.98 "HgN/A
3:50 PM66 °FBroken clouds.3 mph73%29.98 "HgN/A
3:20 PM66 °FPartly sunny.5 mph73%29.98 "HgN/A
2:50 PM66 °FPartly sunny.3 mph68%30.01 "HgN/A
2:20 PM66 °FPartly sunny.2 mph64%30.01 "HgN/A
1:50 PM66 °FBroken clouds.3 mph64%30.01 "HgN/A
1:20 PM66 °FBroken clouds.2 mph68%30.01 "HgN/A
12:50 PM66 °FPartly sunny.3 mph68%30.04 "HgN/A
12:20 PM66 °FPartly sunny.3 mph68%30.04 "HgN/A
11:50 AM64 °FPartly sunny.3 mph73%30.04 "HgN/A
11:20 AM66 °FBroken clouds.2 mph68%30.04 "HgN/A
10:50 AM66 °FBroken clouds.3 mph68%30.04 "HgN/A
10:20 AM64 °FPartly sunny.2 mph73%30.04 "HgN/A
9:50 AM64 °FPartly sunny.3 mph78%30.04 "HgN/A
9:20 AM63 °FBroken clouds.6 mph83%30.04 "HgN/A
8:50 AM63 °FPartly sunny.6 mph83%30.04 "HgN/A
8:20 AM63 °FPartly sunny.7 mph83%30.04 "HgN/A
7:50 AM63 °FBroken clouds.8 mph83%30.04 "HgN/A
7:20 AM61 °FPartly cloudy.10 mph88%30.04 "HgN/A
6:50 AM61 °FPartly cloudy.8 mph88%30.01 "HgN/A
6:20 AM61 °FPartly cloudy.10 mph88%30.01 "HgN/A
5:50 AM63 °FPartly cloudy.13 mph88%30.01 "HgN/A
5:20 AM63 °FPartly cloudy.14 mph88%30.01 "HgN/A
4:50 AM63 °FPartly cloudy.12 mph88%30.01 "HgN/A
4:20 AM63 °FPassing clouds.12 mph94%30.01 "HgN/A
3:50 AM63 °FLight rain. Partly cloudy.12 mph88%30.01 "HgN/A
3:20 AM63 °FRain. Passing clouds.16 mph94%30.01 "HgN/A
2:50 AM64 °FLight rain. Passing clouds.9 mph94%29.98 "HgN/A
2:20 AM64 °FHeavy rain. Passing clouds.8 mph94%29.98 "Hg6 mi
1:50 AM64 °FRain. Partly cloudy.10 mph94%30.01 "HgN/A
1:20 AM64 °FLight rain. Partly cloudy.12 mph94%29.98 "HgN/A
12:50 AM66 °FHeavy rain. Partly cloudy.16 mph88%29.98 "Hg6 mi
11:20 PM
Tue, Sep 1
70 °FPassing clouds.21 mph69%29.95 "HgN/A
10:50 PM72 °FPassing clouds.21 mph61%29.92 "HgN/A
10:20 PM72 °FPartly cloudy.22 mph61%29.92 "HgN/A
9:50 PM73 °FPartly cloudy.24 mph57%29.89 "HgN/A
9:20 PM77 °FPartly cloudy.23 mph44%29.86 "HgN/A
Weather by CustomWeather, © 2015

See weather overviewHow to use our weather pages